Waarnemingen

Advertentie
Mijn weer
Pisa/S. Giusto, Italië (16158): temperatuur & dauwpunt: 11.12.2018 02:00:00 - 17.12.2018 02:00:00 (CET)Pisa/S. Giusto, Italië (16158): windsnelheid: 11.12.2018 02:00:00 - 17.12.2018 02:00:00 (CET)Pisa/S. Giusto, Italië (16158): windrichting: 11.12.2018 02:00:00 - 17.12.2018 02:00:00 (CET)Pisa/S. Giusto, Italië (16158): luchtdruk: 11.12.2018 02:00:00 - 17.12.2018 02:00:00 (CET)Pisa/S. Giusto, Italië (16158): zicht: 11.12.2018 02:00:00 - 17.12.2018 02:00:00 (CET)Pisa/S. Giusto, Italië (16158): Zonneschijnduur: 11.12.2018 02:00:00 - 17.12.2018 02:00:00 (CET)
Datum & Tijd tt [°C] td [°C] ff [km/u] ff [kn] dd ppp [hPa] vv [km] sd [min]
17.12.2018 02:00:00 5,0 5,0 21 11 OZO - 10 -
17.12.2018 01:00:00 5,4 4,8 21 11 OZO 1013,2 10 -
17.12.2018 00:00:00 5,0 5,0 22 12 O - 10 -
16.12.2018 23:00:00 6,0 5,0 24 13 O - 10 -
16.12.2018 22:00:00 4,6 3,9 29 16 O 1015,1 8 -
16.12.2018 21:00:00 5,0 4,0 24 13 O - 8 -
16.12.2018 20:00:00 4,0 4,0 24 13 O - 7 -
16.12.2018 19:00:00 4,8 3,6 28 15 O 1016,6 6 -
16.12.2018 18:00:00 4,0 3,0 22 12 O - 5 -
16.12.2018 17:00:00 4,0 4,0 2 1 - - 5 -
16.12.2018 16:00:00 5,0 1,8 8 4 O 1018,0 7 0
16.12.2018 15:00:00 6,0 0,0 13 7 OZO - 10 -
16.12.2018 14:00:00 6,0 -1,0 4 2 ONO - 10 -
16.12.2018 13:00:00 5,0 -0,8 9 5 O 1019,6 10 0
16.12.2018 12:00:00 5,0 0,0 11 6 O - 10 -
16.12.2018 11:00:00 3,0 -1,0 13 7 OZO - 10 -
16.12.2018 10:00:00 2,6 -0,7 16 9 OZO 1020,6 10 0
16.12.2018 09:00:00 2,0 -1,0 8 4 O - 10 -
16.12.2018 08:00:00 1,0 -1,0 5 3 OZO - 10 -
16.12.2018 07:00:00 -0,6 -1,4 15 8 OZO 1020,2 10 -
16.12.2018 06:00:00 -1,0 -2,0 8 4 ZO - 10 -
16.12.2018 05:00:00 0,0 -1,0 9 5 ZO - 10 -
16.12.2018 04:00:00 -1,0 -1,3 8 4 ZO 1020,6 10 -
16.12.2018 03:00:00 - - - - - - - -
16.12.2018 02:00:00 -1,0 -1,0 9 5 O - 10 -
16.12.2018 01:00:00 -1,0 -1,0 9 5 OZO 1020,8 10 -
16.12.2018 00:00:00 -1,0 -1,0 11 6 OZO - 10 -
15.12.2018 23:00:00 0,0 -1,0 11 6 O - 10 -
15.12.2018 22:00:00 0,0 -1,7 8 4 O 1020,9 10 -
15.12.2018 21:00:00 0,0 -2,0 8 4 ZO - 10 -
15.12.2018 20:00:00 1,0 -2,0 8 4 ZO - 10 -
15.12.2018 19:00:00 3,0 -0,1 9 5 OZO 1020,3 10 -
15.12.2018 18:00:00 3,0 -2,0 15 8 OZO - 10 -
15.12.2018 17:00:00 5,0 -2,0 16 9 OZO - 10 -
15.12.2018 16:00:00 8,0 -3,8 13 7 ZO 1019,1 10 60
15.12.2018 15:00:00 9,0 -3,0 18 10 OZO - 10 -
15.12.2018 14:00:00 9,0 -5,0 16 9 OZO - 10 -
15.12.2018 13:00:00 9,0 -4,2 16 9 OZO 1018,8 10 60
15.12.2018 12:00:00 9,0 -4,0 16 9 OZO - 10 -
15.12.2018 11:00:00 7,0 -1,0 5 3 - - 10 -
15.12.2018 10:00:00 2,6 -0,5 4 2 - 1018,2 10 60
15.12.2018 09:00:00 1,0 -1,0 4 2 - - 10 -
15.12.2018 08:00:00 -1,0 -3,0 5 3 ZZO - 10 -
15.12.2018 07:00:00 -1,0 -3,1 4 2 ZW 1016,9 10 -
15.12.2018 06:00:00 -1,0 -3,0 9 5 OZO - 10 -
15.12.2018 05:00:00 -1,0 -2,0 13 7 ZZO - 10 -
15.12.2018 04:00:00 -0,4 -2,0 8 4 ZO 1016,3 10 -
15.12.2018 03:00:00 0,0 -2,0 11 6 ZZO - 10 -
15.12.2018 02:00:00 0,0 -2,0 11 6 ZO - 10 -
15.12.2018 01:00:00 1,0 -1,7 13 7 ZZO 1015,8 10 -
15.12.2018 00:00:00 2,0 -2,0 9 5 OZO - 10 -
14.12.2018 23:00:00 1,0 -2,0 5 3 ZO - 10 -
14.12.2018 22:00:00 2,6 -1,4 9 5 OZO 1014,9 10 -
14.12.2018 21:00:00 3,0 -1,0 11 6 ZO - 10 -
14.12.2018 20:00:00 3,0 -2,0 9 5 OZO - 10 -
14.12.2018 19:00:00 5,0 -2,1 16 9 OZO 1013,5 10 -
14.12.2018 18:00:00 5,0 -2,0 21 11 O - 10 -
14.12.2018 17:00:00 6,0 0,0 16 9 OZO - 10 -
14.12.2018 16:00:00 8,6 -0,2 18 10 OZO 1012,1 10 60
14.12.2018 15:00:00 9,0 0,0 22 12 OZO - 10 -
14.12.2018 14:00:00 9,0 0,0 22 12 OZO - 10 -
14.12.2018 13:00:00 8,2 0,4 21 11 OZO 1012,3 10 0
14.12.2018 12:00:00 8,0 1,0 18 10 OZO - 10 -
14.12.2018 11:00:00 7,0 1,0 16 9 OZO - 10 -
14.12.2018 10:00:00 6,8 0,7 15 8 OZO 1012,2 10 0
14.12.2018 09:00:00 7,0 1,0 21 11 OZO - 10 -
14.12.2018 08:00:00 7,0 1,0 21 11 OZO - 10 -
14.12.2018 07:00:00 6,8 1,3 13 7 OZO 1010,3 10 -
14.12.2018 06:00:00 7,0 2,0 13 7 O - 10 -
14.12.2018 05:00:00 6,0 2,0 18 10 OZO - 10 -
14.12.2018 04:00:00 6,8 1,7 18 10 OZO 1011,0 10 -
14.12.2018 03:00:00 7,0 2,0 18 10 OZO - 10 -
14.12.2018 02:00:00 6,0 2,0 11 6 OZO - 10 -
14.12.2018 01:00:00 6,2 1,7 13 7 OZO 1011,6 10 -
14.12.2018 00:00:00 6,0 2,0 11 6 ZO - 10 -
13.12.2018 23:00:00 6,0 1,0 9 5 O - 10 -
13.12.2018 22:00:00 6,2 2,3 9 5 O 1011,5 10 -
13.12.2018 21:00:00 6,0 2,0 16 9 OZO - 10 -
13.12.2018 20:00:00 6,0 2,0 13 7 OZO - 10 -
13.12.2018 19:00:00 7,0 1,3 16 9 OZO 1011,6 10 -
13.12.2018 18:00:00 7,0 1,0 18 10 OZO - 10 -
13.12.2018 17:00:00 7,0 1,0 16 9 OZO - 10 -
13.12.2018 16:00:00 8,0 1,2 18 10 O 1010,8 10 30
13.12.2018 15:00:00 8,0 2,0 16 9 O - 10 -
13.12.2018 14:00:00 10,0 2,0 22 12 O - 10 -
13.12.2018 13:00:00 9,4 3,8 21 11 O 1011,9 10 42
13.12.2018 12:00:00 8,0 3,0 22 12 OZO - 10 -
13.12.2018 11:00:00 8,0 3,0 22 12 O - 10 -
13.12.2018 10:00:00 5,2 4,5 21 11 OZO 1013,7 10 30
13.12.2018 09:00:00 5,0 5,0 13 7 OZO - 10 -
13.12.2018 08:00:00 4,0 4,0 16 9 OZO - 10 -
13.12.2018 07:00:00 4,0 4,0 16 9 OZO 1014,3 10 -
13.12.2018 06:00:00 4,0 4,0 21 11 OZO - 10 -
13.12.2018 05:00:00 4,0 4,0 18 10 OZO - 10 -
13.12.2018 04:00:00 5,4 4,8 18 10 O 1016,5 10 -
13.12.2018 03:00:00 6,0 5,0 16 9 O - 10 -
13.12.2018 02:00:00 7,0 3,0 15 8 ONO - 10 -
13.12.2018 01:00:00 8,4 0,6 18 10 ONO 1016,6 10 -
13.12.2018 00:00:00 8,0 0,0 9 5 OZO - 10 -
12.12.2018 23:00:00 8,0 1,0 13 7 ONO - 10 -
12.12.2018 22:00:00 6,4 -0,8 16 9 ONO 1016,8 10 -
12.12.2018 21:00:00 6,0 1,0 4 2 ONO - 10 -
12.12.2018 20:00:00 6,0 0,0 9 5 OZO - 10 -
12.12.2018 19:00:00 6,0 -0,1 5 3 ZO 1017,7 10 -
12.12.2018 18:00:00 6,0 0,0 5 3 ZO - 10 -
12.12.2018 17:00:00 6,0 0,0 9 5 OZO - 10 -
12.12.2018 16:00:00 6,6 0,1 9 5 O 1018,4 10 0
12.12.2018 15:00:00 7,0 0,0 11 6 ZO - 10 -
12.12.2018 14:00:00 7,0 0,0 11 6 O - 10 -
12.12.2018 13:00:00 7,0 -0,2 11 6 O 1018,8 10 0
12.12.2018 12:00:00 7,0 -1,0 5 3 ZO - 10 -
12.12.2018 11:00:00 7,0 -3,0 5 3 O - 10 -
12.12.2018 10:00:00 3,0 -2,1 9 5 OZO 1018,9 10 0
12.12.2018 09:00:00 3,0 -2,0 9 5 OZO - 10 -
12.12.2018 08:00:00 2,0 -2,0 13 7 ZO - 10 -
12.12.2018 07:00:00 1,0 -1,2 13 7 O 1018,8 10 -
12.12.2018 06:00:00 0,0 -2,0 13 7 ZO - 10 -
12.12.2018 05:00:00 -1,0 -2,0 11 6 OZO - 10 -
12.12.2018 04:00:00 -0,6 -1,6 13 7 OZO 1018,8 10 -
12.12.2018 03:00:00 -1,0 -2,0 9 5 ZO - 10 -
12.12.2018 02:00:00 -1,0 -2,0 9 5 ZZO - 10 -
12.12.2018 01:00:00 -0,6 -1,9 4 2 - 1019,1 10 -
12.12.2018 00:00:00 0,0 -2,0 4 2 Z - 10 -
11.12.2018 23:00:00 1,0 -2,0 8 4 OZO - 10 -
11.12.2018 22:00:00 3,0 -1,9 5 3 - 1019,1 10 -
11.12.2018 21:00:00 3,0 -3,0 5 3 - - 10 -
11.12.2018 20:00:00 3,0 -2,0 5 3 ZZO - 10 -
11.12.2018 19:00:00 6,0 -0,3 13 7 OZO 1018,0 10 -
11.12.2018 18:00:00 6,0 -1,0 11 6 ZO - 10 -
11.12.2018 17:00:00 8,0 -2,0 13 7 OZO - 10 -
11.12.2018 16:00:00 13,0 -3,3 9 5 OZO 1017,0 10 60
11.12.2018 15:00:00 13,0 -5,0 5 3 ZO - 10 -
11.12.2018 14:00:00 13,0 -3,0 9 5 ZO - 10 -
11.12.2018 13:00:00 11,4 -1,7 8 4 OZO 1018,0 10 60
11.12.2018 12:00:00 11,0 -2,0 5 3 ZZO - 10 -
11.12.2018 11:00:00 7,0 0,0 11 6 O - 10 -
11.12.2018 10:00:00 1,4 -1,2 8 4 ZZO 1018,1 10 60
11.12.2018 09:00:00 0,0 -1,0 8 4 OZO - 10 -
11.12.2018 08:00:00 -1,0 -1,0 9 5 OZO - 10 -
11.12.2018 07:00:00 -0,4 -0,8 8 4 ZO 1017,3 10 -
11.12.2018 06:00:00 -1,0 -1,0 8 4 O - 10 -
11.12.2018 05:00:00 0,0 0,0 8 4 O - 10 -
11.12.2018 04:00:00 0,0 -0,1 5 3 - 1017,3 10 -
11.12.2018 03:00:00 0,0 0,0 8 4 OZO - 10 -
11.12.2018 02:00:00 1,0 0,0 8 4 Z - 10 -

tt = temperatuur
td = dauwpunt
ff = windsnelheid
dd = windrichting
ppp = luchtdruk
vv = zicht
sd = Zonneschijnduur

Weerstations in de omgeving